Flag for Austria Weather past 2 weeks in St. Pölten, Lower Austria, Austria

Now
57 °F

Partly cloudy.


Feels Like: 57 °F
Forecast: 46 / 70 °F
Wind: 1 mph from North

Location: Tulln Airport


UV Index: 3 (Moderate)

Visibility: 12 mi


Pressure: 30.07 "Hg

Humidity: 77%

Dew point: 50 °F

Location of St. PöltenLocation

Historic Weather in St. Pölten

°F

St. Pölten temperature yesterday

Maximum temperature yesterday: 73 °F (at 2:50 PM)
Minimum temperature yesterday: 45 °F (at 5:50 AM)
Average temperature yesterday: 62 °F

Past Weeks' High & Low Weather Summary

 TemperatureHumidityPressure
High73 °F (Apr 23, 2:50 PM)100% (Apr 20, 5:50 AM)30.33 "Hg (Apr 20, 5:50 AM)
Low32 °F (Apr 18, 4:50 AM)28% (Apr 18, 2:50 PM)29.71 "Hg (Apr 21, 10:50 AM)
Average52 °F66%29.99 "Hg
* Reported Apr 8 9:50 PM — Apr 23 9:50 PM, St. Pölten, Weather by CustomWeather, © 2014

Note: Actual official high and low records may vary slightly from our data, if they occured in-between our weather recording intervals... More about our weather records

Advertising

Historic Weather Conditions — Data for Previous 24 hours

 ConditionsComfort  
Time TempWeatherWind HumidityBarometerVisibility
9:50 PM
Apr 23
57 °FPartly cloudy.1 mph77%30.07 "Hg12 mi
8:50 PM61 °FThunderstorms. Partly sunny.1 mph68%30.04 "Hg12 mi
7:50 PM61 °FBroken clouds.2 mph68%30.04 "Hg22 mi
6:50 PM64 °FScattered clouds.6 mph60%30.01 "Hg22 mi
5:50 PM68 °FScattered clouds.3 mph49%30.01 "Hg25 mi
4:50 PM72 °FBroken clouds.2 mph44%30.01 "Hg22 mi
3:50 PM73 °FPartly sunny.6 mph38%30.04 "Hg19 mi
2:50 PM73 °FPartly sunny.7 mph38%30.04 "Hg19 mi
1:50 PM72 °FScattered clouds.3 mph47%30.07 "Hg17 mi
12:50 PM70 °FScattered clouds.3 mph53%30.09 "Hg16 mi
11:50 AM68 °FPassing clouds.3 mph53%30.09 "Hg16 mi
10:50 AM64 °FPassing clouds.3 mph64%30.09 "Hg16 mi
9:50 AM63 °FPassing clouds.7 mph68%30.09 "Hg16 mi
8:50 AM57 °FPassing clouds.8 mph77%30.09 "Hg16 mi
7:50 AM50 °FPassing clouds.2 mph94%30.09 "Hg12 mi
6:50 AM45 °FFog.1 mph93%30.09 "Hg6 mi
5:50 AM45 °FFog.1 mph93%30.07 "Hg16 mi
Weather by CustomWeather, © 2014

See weather overview